Weather in Pryazovske

Ukraine / Zaporizhia Region     46˚44′16″N   35˚38′04″E
temp.,
°C
wind,
m/s
gust,
m/s
humid.,
%
clouds,
%
prec.,
mm/h
press.,
hPa
HPBL,
m
27 november, fri
fri2723:00+4˚se127424 0.0 102622
02:00+3˚se128612 0.0 102622
05:00+3˚s23890 0.0 102623
08:00+4˚s368810 0.0 1025144
11:00+9˚ssw57737 0.0 1025653
14:00+9˚sw577031 0.0 1023912
17:00+8˚s3577100 0.0 1023154
20:00+9˚s4778100 0.0 1022200
28 november, sat
sat2823:00+8˚ssw488182 0.0 1022256
02:00+7˚s359078 0.0 1022108
05:00+7˚s369295 0.0 1021121
08:00+7˚sse379359 0.0 1022157
11:00+10˚sse687556 0.0 1022697
14:00+10˚sse577976 0.0 1021557
17:00+8˚se5991100 0.0 1021267
20:00+9˚se61180100 0.0 1021385
29 november, sun
sun2923:00+7˚se5107593 0.0 1020241
02:00+6˚ese488187 0.0 1020154
05:00+7˚se469595 0.0 1020140
08:00+8˚se589798 0.0 1021258
11:00+10˚se6884100 0.0 1021448
14:00+10˚se6883100 0.0 1020356
17:00+8˚ese5990100 0.0 1021217
20:00+8˚ese61091100 0.0 1021218
30 november, mon
mon3023:00+7˚ese5886100 0.0 1021193
02:00+7˚ese61083100 0.0 1022239
05:00+6˚ese61187100 0.0 1021324
08:00+6˚e71292100 0.0 1022415
11:00+8˚e8127699 0.0 1022537
14:00+8˚e7117299 0.0 1021641
17:00+6˚ene61375100 0.0 1021540
20:00+6˚e71481100 0.0 1022490
1 december, tue
tue123:00+6˚e7138396 0.0 1022580
02:00+5˚e6128298 0.0 1021655
05:00+4˚e71274100 0.0 1022785
08:00+5˚e7117390 0.0 1022947
11:00+5˚e71172100 0.0 1021886
14:00+6˚ene71069100 0.0 1020917
17:00+7˚ene61271100 0.0 1020732
20:00+7˚ese101574100 0.0 1021841